Location: Helds Island Access
(38.5526°N, 91.5997°W)
Time: 06:06:08
(UTC-05:00)

Daily predictions for brighter satellites

Satellite Brightness Start Highest point End
(mag) Time Altitude Azimuth Time Altitude Azimuth Time Altitude Azimuth
AQUARIUS 4.3 18:39:28 10° SSE 18:43:57 86° WSW 18:48:28 10° NNW
Aureole 1 Rocket 4.2 18:38:37 10° SSW 18:45:20 72° WNW 18:50:24 10° NNE
Cosmos 1452 Rocket 4.1 18:42:55 10° N 18:47:44 35° ENE 18:52:32 10° SE
Cosmos 1726 4.1 18:47:26 10° E 18:47:52 10° E 18:48:18 10° E
Meteor 1-28 Rocket 3.2 18:44:28 10° NNE 18:48:16 83° ESE 18:52:01 10° S
Atlas Centaur 2 3.1 18:44:39 10° WSW 18:48:29 30° S 18:53:08 10° ESE
Cosmos 1703 3.7 18:45:35 10° N 18:49:16 38° ENE 18:52:55 10° SSE
Cosmos 2058 3.4 18:45:59 10° N 18:49:55 39° ENE 18:53:48 10° SSE
SKYMED 2 3.9 18:46:16 10° NNE 18:50:26 44° E 18:54:34 10° S
FALCON 9 R/B 3.3 18:51:10 10° SSW 18:51:52 11° SSW 18:52:38 10° S
BREEZE-M DEB (TANK) 1.1 18:49:54 10° NW 18:52:09 52° NNE 18:54:08 10° ESE
Delta 2 Rocket 3.6 18:48:43 10° WSW 18:52:31 50° S 18:55:57 10° E
Cosmos 1743 Rocket 3.6 18:49:17 10° N 18:53:38 60° E 18:57:59 10° SSE
SL-16 R/B 2.8 18:49:47 10° NNW 18:55:24 63° WSW 19:00:58 10° S
SL-08 R/B 4.4 18:49:41 10° S 18:55:50 78° E 19:01:58 10° N
ISS -0.7 18:55:02 10° W 18:56:51 14° SW 18:58:39 10° SSW
Cosmos 2221 3.4 18:54:46 10° SSE 18:58:26 28° E 19:02:09 10° NNE
Cosmos 1842 Rocket 3.5 18:55:56 10° S 19:00:23 72° E 19:04:50 10° NNE
Cosmos 1908 3.9 18:56:52 10° SSE 19:00:25 34° E 19:03:59 10° NNE
METEOR-M 4.2 18:55:18 10° SSE 19:00:32 58° ENE 19:05:47 10° N
CZ-4C R/B 2.9 18:58:18 10° S 19:02:35 28° ESE 19:07:17 10° NE
GENESIS II 4.2 18:59:25 10° SSW 19:03:23 86° ESE 19:07:23 10° NNE
SL-24 R/B - RUBIN 2 3.9 18:59:35 10° NNW 19:04:18 50° NE 19:08:35 10° SE
BREEZE-M DEB (TANK) 3.1 19:02:48 10° W 19:05:10 31° NNW 19:07:00 10° NE
NOAA 12 4.5 19:01:02 10° SE 19:05:59 43° ENE 19:10:59 10° N
Cosmos 921 Rocket 3.4 19:03:15 10° N 19:07:29 41° ENE 19:11:37 10° SE
Cosmos 1400 Rocket 2.8 19:05:20 10° N 19:09:23 89° WSW 19:13:21 10° S
H-2A R/B 4.3 19:07:33 11° ESE 19:09:52 17° ENE 19:12:27 10° NNE
BREEZE-M R/B 4.4 19:10:07 10° SE 19:10:42 10° ESE 19:10:42 10° ESE
Iridium 4 Rocket 4.2 19:05:59 10° SSE 19:11:01 38° E 19:16:20 10° NNE
Cosmos 2237 Rocket 4.0 19:09:57 10° NNE 19:11:54 12° NE 19:13:12 11° ENE
MOS 1 4.3 19:06:58 10° SSE 19:12:37 79° ENE 19:18:20 10° NNW
DELTA 2 R/B (1) 3.6 19:08:48 10° W 19:14:24 89° N 19:19:09 15° E
Cosmos 1500 Rocket 3.4 19:10:33 10° N 19:14:54 80° E 19:19:13 10° S
CZ-4 R/B 3.0 19:13:52 10° S 19:17:50 40° W 19:21:48 10° NNW
Cosmos 2227 Rocket 4.1 19:17:06 10° ESE 19:17:28 11° ESE 19:17:28 11° ESE
Cosmos 1626 2.8 19:16:29 10° NNW 19:20:10 58° W 19:23:50 10° S
ALOS 2.3 19:20:01 10° SSE 19:24:34 57° ENE 19:29:10 10° N
Cosmos 1048 Rocket 4.1 19:19:40 10° S 19:24:37 50° ESE 19:29:33 10° NNE
Cosmos 1420 Rocket 4.0 19:26:57 10° NNW 19:32:15 66° ENE 19:37:29 10° SSE
Cosmos 1300 4.1 19:29:36 10° SE 19:31:27 20° ESE 19:31:27 20° ESE
APEX 2.5 19:30:40 10° SSW 19:34:01 74° ESE 19:35:53 20° NNE
Cosmos 2360 Rocket 2.4 19:29:47 10° NNW 19:35:26 74° WSW 19:41:04 10° SSE
COSMO-SKYMED 1 3.5 19:34:17 10° N 19:38:30 50° WNW 19:42:41 10° SSW
Cosmos 158 Rocket 3.8 19:33:33 10° SSW 19:38:34 85° ESE 19:43:46 10° NNE
Thor Agena Rocket 3.5 19:33:37 10° NNE 19:38:37 55° ESE 19:43:32 10° S
Abrixas 2.8 19:36:58 10° SW 19:38:32 33° S 19:38:32 33° S
COSMOS 2428 2.8 19:33:30 10° NNW 19:39:03 52° ENE 19:44:03 13° SE
Cosmos 2333 Rocket 3.1 19:37:10 10° N 19:42:09 29° ENE 19:43:37 26° E
Sich 1 3.7 19:40:14 10° NNE 19:44:12 33° ENE 19:44:34 32° E
Cosmos 2219 3.2 19:39:29 10° S 19:45:09 65° ESE 19:50:51 10° NNE
BREEZE-M DEB (TANK) 4.1 19:39:08 10° W 19:49:42 43° NNW 19:52:04 24° NE
Cosmos 1805 Rocket 3.4 19:49:10 10° N 19:53:32 66° E 19:57:54 10° SSE
Cosmos 1315 Rocket 3.7 19:50:09 10° NNW 19:54:07 51° W 19:58:06 10° S
Cosmos 2297 Rocket 4.2 19:52:26 10° SSE 19:52:50 12° SSE 19:52:50 12° SSE
Centaur D AC-29 3.1 19:48:29 10° WSW 19:56:52 26° SSW 19:59:13 17° SSE
FENGYUN 3A 3.9 19:52:19 10° S 19:57:41 72° WSW 20:03:07 10° NNW
Cosmos 44 3.2 19:54:08 10° SW 19:58:29 68° WNW 20:01:36 18° NNE
FengYun 1-2 T 4.1 19:53:14 10° SSE 19:58:40 68° ENE 20:04:08 10° N
Cosmos 1666 Rocket 3.6 19:58:12 10° N 20:02:14 50° ENE 20:02:14 50° ENE
Cosmos 1821 Rocket 4.0 19:59:46 10° S 20:05:54 84° W 20:12:11 10° N
Cosmos 1934 Rocket 3.9 20:03:16 10° S 20:09:36 79° E 20:16:00 10° N
Cosmos 1633 Rocket 3.7 20:05:32 10° N 20:08:36 38° NNE 20:08:36 38° NNE
Cosmos 1269 Rocket 4.3 20:07:09 10° SSW 20:12:23 67° WNW 20:17:40 10° NNE
Centaur AC-112 4.5 20:10:20 10° SW 20:13:21 15° SSW 20:14:08 14° S
FREGAT/IRIS 4.3 20:14:46 28° NNW 20:14:46 28° NNW 20:16:25 10° NNW
SJ-6B 3.4 20:16:15 44° N 20:16:15 44° N 20:18:53 10° N
USA 267 3.2 20:12:42 37° ENE 20:15:19 61° SE 20:21:45 10° SSW
ASTRO E2 4.3 20:13:12 10° WSW 20:16:26 24° S 20:16:30 24° S
MOS 1-B Rocket 3.9 20:15:59 49° E 20:16:41 52° ENE 20:22:30 10° N
Cosmos 44 Rocket 4.3 20:17:58 10° SW 20:22:27 43° NW 20:25:30 19° N
Cosmos 1726 3.4 20:19:12 10° SSW 20:22:42 41° W 20:26:14 10° N
Cosmos 2219 Rocket 2.0 20:18:30 10° NNW 20:24:07 75° ENE 20:25:02 61° SE
Meteor 2-10 3.9 20:22:05 10° SSW 20:27:05 79° W 20:32:13 10° N
Aureole 2 Rocket 3.8 20:29:03 10° NNW 20:31:43 41° NW 20:31:43 41° NW
Atlas Centaur 2 3.6 20:32:57 10° WSW 20:36:59 24° SSW 20:37:32 23° S
Cosmos 2123 Rocket 4.0 20:30:49 10° N 20:37:04 82° W 20:42:54 12° S
Cosmos 1605 Rocket 3.8 20:34:04 10° S 20:40:11 88° W 20:46:19 10° N
Gbstr 26 Del rocket 3.6 20:35:29 10° NW 20:40:52 78° NE 20:40:52 78° NE
Cosmos 1110 Rocket 4.4 20:43:51 10° NNW 20:48:03 57° NNW 20:48:03 57° NNW
USA 234 4.3 20:49:37 29° NNE 20:49:37 29° NNE 20:54:57 10° NNW
CZ-4C R/B 3.3 20:45:54 10° WSW 20:50:47 39° NW 20:53:44 23° N
Cosmos 2237 Rocket 3.0 20:51:14 10° NNW 20:55:03 43° N 20:55:03 43° N
Resurs 01 Rocket 4.0 21:01:21 16° NNW 21:01:21 16° NNW 21:02:15 10° NNW
Cosmos 2227 Rocket 3.6 20:56:48 10° SSW 20:59:25 29° SSW 20:59:25 29° SSW
SL-16 R/B 4.2 21:02:11 10° N 21:03:41 18° N 21:03:41 18° N
Cosmos 2333 Rocket 3.5 21:21:11 10° NW 21:25:41 37° W 21:25:41 37° W
